Wind_Gust
23 30 32 32 32 32 33 37 36 38 35 37 42 42 39 39 43 41 40 36 35 39 42 45 46 49 42 36 33 32 21 16 24 27 27 24 23 20 21 19 24 24 23 23 29 27 23 22 22 21 21 20 18 17 17 19 19 18 20 17 17 17 16 15 16 14 15 14 11 8 9 8 6 5 8 11 10 12 12 10 10 10 10 8 8 9
30 31 32 31 31 32 32 36 37 37 41 41 36 38 42 41 45 45 42 41 41 36 34 42 44 49 46 39 32 30 33 25 20 11 11 17 24 22 19 17 21 24 20 24 27 26 21 21 20 21 21 20 23 19 19 20 20 17 18 17 17 17 15 16 16 16 14 13 13 12 11 9 7 8 11 12 10 12 11 10 9 10 8 8 8 8
33 36 31 32 32 32 33 34 40 42 40 40 41 36 41 44 38 36 46 43 44 41 41 35 43 41 41 43 39 36 31 31 29 27 25 23 20 18 19 16 17 22 23 25 28 27 27 25 24 23 22 22 23 21 21 20 19 17 19 17 17 17 17 17 16 16 16 12 12 11 11 10 11 5 7 12 11 11 11 9 8 8 9 9 8 8
34 32 32 31 32 33 35 37 38 43 42 37 40 42 40 34 45 43 43 42 44 52 38 41 45 40 36 39 44 43 42 31 24 30 31 28 27 22 21 18 22 27 28 29 30 31 28 26 27 24 23 22 21 22 20 21 22 19 20 17 19 17 17 17 16 15 13 14 12 11 11 9 9 10 11 12 11 10 10 9 7 6 6 6 8 8
32 25 30 32 33 35 37 37 38 41 40 38 37 39 41 39 43 40 37 47 43 41 40 38 45 44 31 40 45 43 43 41 34 31 33 33 31 28 21 22 28 30 30 32 31 30 30 28 26 27 25 23 22 22 21 21 23 22 22 22 18 18 19 17 18 16 16 17 14 16 15 12 17 13 14 12 10 9 8 8 6 7 8 8 8 8
33 32 26 32 35 36 38 38 42 36 39 39 38 38 35 34 36 40 34 38 48 48 49 40 48 52 34 43 38 35 43 38 34 36 36 34 32 30 27 24 26 31 32 35 34 34 33 32 26 24 24 24 23 24 22 21 22 20 23 19 18 19 18 18 17 17 17 18 19 20 19 17 15 16 15 15 16 14 11 9 5 5 7 7 6 6
31 29 33 32 34 35 37 37 34 37 37 37 44 40 40 37 36 36 40 40 41 49 42 46 50 46 34 43 35 31 34 36 32 27 35 37 34 33 27 22 25 30 28 33 32 30 30 29 30 27 28 29 27 23 22 21 21 22 18 18 19 19 17 18 16 18 19 18 18 18 18 16 17 17 14 12 14 12 11 11 8 6 5 6 7 7
30 30 34 34 33 37 36 41 39 39 41 46 30 36 38 40 42 38 39 46 40 29 38 43 53 49 42 34 34 40 31 34 34 32 30 34 34 31 26 22 22 31 30 30 30 31 33 33 33 33 29 27 25 22 21 23 22 21 19 17 19 19 19 17 17 19 19 21 18 16 15 15 15 15 16 16 15 12 12 11 10 6 5 4 6 8
29 34 34 35 34 37 40 35 31 38 49 38 29 35 39 43 40 40 41 38 42 39 42 44 44 53 43 31 33 36 38 32 35 39 36 32 36 30 28 26 22 31 31 31 31 31 31 32 32 29 28 23 22 23 24 24 21 20 18 18 19 19 18 18 17 19 18 18 18 17 17 15 12 14 14 15 14 15 14 11 9 8 6 6 7 9
35 31 30 32 35 37 30 34 34 34 42 34 33 34 37 39 43 39 44 42 33 47 39 37 42 53 44 41 33 30 38 36 38 38 36 32 31 33 29 24 25 29 29 31 34 34 30 29 28 27 26 23 24 23 21 20 19 18 18 19 21 20 19 18 18 18 17 16 17 16 14 15 15 17 15 15 16 15 13 12 11 9 8 8 8 6
32 26 28 33 38 33 29 33 37 36 36 27 36 41 43 40 42 41 41 41 39 37 37 35 43 49 49 36 35 30 39 36 29 29 29 32 30 34 28 25 27 28 30 28 27 30 28 28 28 28 28 25 22 21 22 21 20 18 20 21 23 19 19 18 19 19 17 16 16 16 15 15 17 18 18 17 16 15 14 13 12 11 10 8 8 8
35 33 34 34 26 32 30 35 35 35 36 36 44 42 37 39 40 42 35 35 43 36 34 41 44 46 51 26 33 36 35 37 29 22 28 30 30 34 28 29 30 30 30 30 29 32 29 30 27 28 28 27 25 22 24 22 20 21 20 22 22 20 20 19 20 19 19 17 16 14 15 17 19 20 20 19 19 18 17 14 14 12 12 8 8 6
35 37 29 27 25 30 34 33 36 39 39 42 38 38 34 31 42 47 42 45 39 38 29 36 40 46 48 28 22 32 36 42 38 34 29 33 30 34 31 28 29 30 28 31 29 29 32 34 32 28 28 28 26 27 25 24 22 21 21 22 24 23 20 21 20 20 18 17 16 16 16 17 18 18 18 17 17 17 18 15 14 14 13 12 9 8
30 29 31 29 25 33 30 38 34 39 41 40 41 36 34 35 35 31 40 35 34 33 36 37 34 46 29 37 32 29 34 36 40 39 35 30 30 32 32 30 30 31 31 31 30 31 32 32 31 30 30 28 28 26 26 24 23 22 21 23 23 25 21 20 20 21 19 16 16 16 17 17 18 17 17 16 18 16 15 15 15 14 15 14 11 10
26 30 33 28 29 23 37 33 28 30 37 44 36 41 26 30 46 35 46 48 35 34 40 37 44 41 39 25 29 34 35 28 34 41 36 33 28 30 35 33 35 33 29 31 31 32 33 34 32 30 30 28 28 26 26 24 25 23 22 26 23 23 22 22 22 21 20 18 17 15 17 18 17 17 17 16 15 15 17 14 15 14 15 14 13 12
28 30 20 28 24 22 30 30 32 31 34 38 40 34 37 35 22 35 28 31 34 35 34 40 35 21 36 21 27 25 30 33 28 30 41 35 26 30 30 33 33 31 31 31 30 33 33 32 31 29 29 27 27 27 25 24 25 24 24 24 23 24 23 22 22 20 22 17 17 17 18 19 18 16 15 13 13 13 16 16 16 15 15 13 12 13
27 33 20 25 30 29 26 29 38 36 38 39 41 44 32 20 27 20 20 22 15 29 33 17 29 36 21 31 31 34 32 30 32 38 31 43 30 32 30 30 28 30 32 29 31 34 35 31 31 31 29 27 26 28 28 28 27 26 23 25 24 23 23 22 22 22 20 19 19 19 19 19 18 17 16 17 15 16 15 14 14 15 14 13 15 14
22 22 23 24 29 33 29 29 33 35 35 34 44 34 28 29 30 30 28 20 24 32 33 31 33 32 33 30 31 32 34 32 31 34 37 25 27 33 33 31 31 30 31 29 33 35 35 34 34 30 29 29 31 30 26 26 23 24 22 23 25 25 26 24 23 21 21 20 20 20 20 20 19 17 16 16 17 16 15 12 14 14 15 15 15 16
24 22 28 26 27 28 30 32 35 34 35 34 34 26 45 35 35 25 24 27 32 29 30 35 33 36 38 27 22 29 34 28 24 28 32 24 26 33 31 31 30 30 28 30 38 36 33 33 32 32 30 29 29 25 29 27 25 23 22 24 26 26 27 25 23 20 20 19 18 20 21 19 18 17 18 17 16 15 14 14 16 16 16 15 15 16
24 19 22 25 28 28 31 32 34 31 39 40 31 40 36 25 26 22 27 12 28 22 24 30 39 34 32 32 19 23 31 29 23 27 33 24 21 24 27 28 29 27 26 30 35 34 34 35 33 32 32 32 31 30 29 28 27 25 24 23 24 23 23 22 22 20 21 21 19 18 18 17 19 18 19 18 17 16 14 15 16 17 15 16 15 15
15 13 16 22 29 30 36 34 29 26 33 43 38 35 38 37 14 21 22 31 27 27 27 24 31 32 27 24 24 21 23 25 21 19 19 21 23 26 24 29 27 26 27 31 32 33 33 32 31 29 28 29 26 25 24 26 27 27 24 22 23 25 26 24 23 21 21 21 20 20 20 18 18 17 18 17 15 14 15 14 15 16 14 14 15 16
16 12 14 20 26 31 27 27 26 33 36 35 34 28 27 30 26 24 23 27 31 32 27 27 24 24 20 19 20 19 21 21 20 14 15 18 22 28 28 26 25 23 25 31 30 30 32 32 30 30 30 28 28 28 27 26 25 25 26 27 26 25 25 25 24 23 22 20 21 20 20 18 17 17 17 18 16 16 16 14 14 14 14 14 14 16
20 11 11 18 20 26 24 23 26 27 32 34 31 30 32 29 24 26 22 23 26 31 24 27 21 21 17 24 20 19 23 25 22 19 18 21 20 22 26 28 26 27 27 31 30 32 31 30 30 33 32 33 31 30 29 26 26 26 24 25 24 25 24 23 24 21 21 20 21 20 20 19 18 18 18 19 17 16 16 14 14 14 15 14 13 13
13 16 14 20 22 26 28 28 28 30 28 32 35 33 35 36 31 26 25 22 25 21 28 23 24 21 12 11 28 26 19 19 18 17 19 18 15 23 23 24 21 23 25 29 31 30 30 28 28 29 32 33 33 27 27 27 25 24 22 24 24 24 23 23 22 22 21 20 21 20 19 19 19 20 20 19 17 16 15 16 15 14 15 16 15 16
14 14 10 14 14 21 21 26 32 28 32 32 29 30 28 30 30 28 25 20 26 19 20 22 23 20 17 12 11 16 24 18 16 15 17 16 10 16 23 23 22 25 29 28 29 29 27 27 31 34 33 32 30 30 26 27 26 24 24 23 24 23 23 23 22 22 22 21 22 21 21 19 20 20 20 18 17 16 16 15 15 14 15 14 14 14
13 9 8 15 18 19 21 28 32 26 27 23 24 29 31 36 36 32 24 14 17 12 23 17 17 16 11 10 8 20 20 17 15 16 10 7 11 15 17 23 27 27 31 32 31 31 33 33 30 27 27 30 30 29 27 26 25 24 24 23 22 24 24 24 22 22 22 23 24 22 21 20 20 21 20 19 17 17 17 17 14 14 13 17 15 13
13 12 16 15 15 17 18 21 18 20 23 31 27 28 30 31 35 30 17 13 20 15 18 15 13 16 14 10 10 10 16 22 15 16 17 16 19 20 19 24 26 28 30 33 33 34 33 30 28 28 27 27 26 25 27 27 25 23 25 22 21 24 23 24 23 23 23 24 23 23 21 21 21 21 20 18 18 18 17 16 15 15 16 17 14 14
14 13 15 15 18 23 22 26 25 26 26 26 27 27 29 29 27 25 23 18 14 13 18 14 17 14 13 12 15 14 10 10 18 16 18 17 16 16 14 22 24 30 29 29 29 30 31 30 28 28 27 26 26 26 25 25 25 24 26 24 22 24 24 23 23 23 23 23 23 22 21 21 20 20 19 18 18 18 17 16 16 15 15 16 15 15
11 12 10 11 16 20 20 22 28 30 27 27 29 29 29 29 25 24 17 22 17 14 13 11 14 14 13 15 11 13 11 11 16 19 16 16 17 18 20 20 22 29 30 32 34 33 31 30 28 28 28 28 26 26 26 26 25 24 23 22 21 23 25 24 24 24 23 23 23 22 21 20 20 19 19 20 20 18 17 16 15 15 16 14 14 14
9 12 8 12 18 17 18 23 22 28 31 31 28 27 27 25 23 20 18 19 21 13 13 14 11 9 14 14 19 15 15 11 9 11 13 18 21 21 21 20 20 22 23 29 31 31 30 29 28 27 26 25 28 29 27 26 26 26 26 25 22 23 23 24 25 25 23 23 23 21 21 21 20 20 21 21 19 18 17 17 15 16 17 15 15 14
11 7 11 12 14 18 19 21 23 26 25 31 28 27 27 26 25 22 20 13 14 16 9 7 10 13 16 15 16 16 17 17 15 10 12 13 15 19 22 20 21 22 22 21 21 23 24 24 24 26 26 26 28 28 27 24 25 24 26 23 23 23 23 23 25 25 24 23 22 22 21 21 21 22 22 20 19 18 18 18 17 18 16 15 15 14
11 9 11 17 14 17 19 17 24 26 26 27 24 26 27 27 26 22 24 16 13 12 9 7 9 10 12 14 20 17 18 16 14 10 9 9 17 17 17 17 20 20 19 20 21 21 21 22 25 26 27 26 27 27 26 25 24 23 26 24 23 22 22 23 24 25 25 23 23 23 23 22 23 22 22 21 20 20 18 18 18 18 16 16 15 13
12 13 9 7 15 14 17 17 17 20 17 22 23 25 24 18 19 19 25 20 14 8 10 8 14 12 9 17 23 24 18 19 20 18 13 8 9 17 19 16 17 19 18 22 22 23 23 24 25 27 27 26 28 27 24 25 26 24 24 24 24 21 21 22 24 24 25 23 24 26 25 23 23 22 22 22 20 19 18 20 19 18 17 17 15 12
10 11 9 8 10 11 13 10 19 17 19 27 15 17 23 25 23 23 22 18 14 17 16 13 12 5 13 6 9 16 25 27 25 23 16 11 14 12 14 20 22 19 20 20 20 21 20 19 20 24 24 24 25 25 23 24 24 21 20 23 24 23 20 22 23 24 24 24 26 25 24 23 23 23 23 22 21 20 20 20 19 19 16 16 13 14
11 10 10 13 12 12 12 10 13 17 23 13 19 21 23 23 24 21 15 18 19 19 15 16 16 15 15 12 6 11 15 19 17 17 18 12 12 11 11 16 22 21 21 19 22 19 19 18 20 22 21 22 24 22 23 22 22 20 21 24 25 22 20 21 22 22 23 25 24 25 24 23 23 23 23 23 22 21 21 21 18 21 17 17 16 15
7 11 9 14 12 14 15 10 9 13 17 23 25 24 21 19 19 16 20 18 21 23 23 22 20 16 13 10 9 11 11 12 22 11 11 10 11 12 10 10 13 16 18 20 22 21 21 21 25 25 22 21 24 23 25 24 22 22 22 22 24 23 20 20 22 22 23 24 25 26 25 25 23 23 23 23 22 21 22 21 20 22 16 15 12 11
11 10 11 12 12 16 5 8 20 19 24 20 15 15 20 22 18 15 17 21 18 22 23 21 17 19 19 15 11 13 13 20 17 7 6 12 13 12 13 11 11 15 15 18 22 23 23 22 24 24 24 23 24 25 23 23 22 22 22 24 25 24 22 22 23 23 24 24 24 25 26 24 24 24 23 23 23 22 22 21 18 18 16 16 14 13
10 12 10 10 10 9 8 15 14 13 14 16 15 23 23 21 22 20 11 14 15 16 18 18 19 22 20 16 13 10 12 21 18 13 10 15 17 11 13 12 12 17 16 19 15 17 20 24 26 25 29 25 23 23 23 23 23 22 24 22 23 25 25 23 22 23 23 23 23 24 25 24 25 24 23 23 23 22 21 19 19 19 19 21 17 15
11 14 17 12 13 9 7 11 12 11 15 12 23 25 24 24 21 22 14 21 17 16 17 20 22 18 16 17 13 12 16 22 15 14 15 19 20 15 12 10 17 17 17 19 19 18 23 28 27 26 26 27 25 23 24 23 24 22 23 23 22 24 26 27 26 24 26 24 24 23 24 23 23 23 23 22 21 21 20 20 20 18 17 18 16 15
13 10 8 15 12 12 10 15 15 11 14 14 18 21 23 22 23 18 20 19 16 24 19 20 21 16 16 13 12 16 19 14 15 16 9 11 15 10 15 20 19 15 13 15 17 22 25 25 27 27 27 27 26 24 25 25 25 23 22 24 23 23 25 26 26 24 25 24 24 22 23 22 21 20 22 23 20 17 19 20 20 19 18 17 17 15
16 10 11 13 13 10 9 13 11 17 13 10 15 19 23 23 14 14 21 8 26 25 21 20 12 12 15 14 16 21 16 15 13 12 5 7 13 14 11 14 17 17 17 16 20 21 27 29 33 31 28 26 26 25 26 26 27 24 23 23 26 26 24 23 23 24 25 22 22 21 20 19 22 23 19 18 20 19 18 19 20 19 20 19 16 15
9 11 8 9 12 12 9 15 14 14 15 15 19 21 22 18 14 13 13 22 21 21 20 19 13 16 17 10 12 17 12 12 12 10 4 5 8 12 17 15 20 22 17 17 25 25 26 28 25 26 25 26 30 28 26 27 28 26 24 23 24 21 20 21 23 25 24 23 22 21 19 19 19 18 19 19 20 19 18 16 18 20 20 17 17 17
12 10 8 7 8 7 11 11 10 10 12 17 18 13 17 10 11 17 23 23 22 19 20 21 14 15 11 19 16 11 17 11 10 7 5 5 11 14 13 18 17 23 22 25 26 26 29 26 29 29 26 27 29 29 28 28 26 24 25 25 22 21 24 24 22 24 24 22 21 18 19 21 24 19 17 19 20 21 19 18 19 18 18 18 18 18
12 13 9 6 7 6 7 9 12 11 16 10 12 8 11 10 18 23 28 22 21 18 20 22 16 14 13 14 17 11 11 9 5 6 6 7 10 11 14 14 16 19 24 24 27 27 27 28 26 27 25 26 26 27 27 30 29 25 24 23 21 20 20 22 22 24 23 21 19 19 20 21 21 18 19 21 22 20 21 19 18 17 17 18 19 18
19 11 7 7 7 10 10 11 18 16 18 16 12 16 10 11 13 20 25 22 22 21 19 20 20 16 16 13 15 14 9 9 10 14 14 14 11 17 24 21 15 21 24 23 27 25 25 31 29 28 26 26 26 27 26 26 28 25 24 22 21 21 21 22 23 24 20 20 21 22 21 20 20 20 19 18 21 21 20 18 19 19 15 17 16 16
12 12 9 15 18 17 17 15 12 16 14 16 12 13 14 12 14 14 16 19 19 21 24 21 16 18 21 20 21 17 16 12 18 20 19 17 20 25 32 35 35 33 25 21 23 24 24 26 23 24 26 26 27 25 24 24 27 28 25 22 23 22 20 20 23 22 22 21 22 23 22 21 19 18 19 18 18 20 20 24 23 22 20 19 18 18
17 17 22 15 21 23 16 19 20 15 15 17 11 13 11 16 16 18 23 23 25 26 28 26 17 13 18 21 23 19 18 16 15 22 21 18 24 26 30 28 31 29 25 24 25 20 23 24 28 28 26 25 24 24 23 23 23 23 21 21 24 22 21 20 22 21 21 22 21 19 20 22 20 19 18 17 17 17 18 17 18 19 21 20 20 19
15 21 21 19 14 13 13 15 15 13 14 15 16 14 15 17 15 16 22 23 28 30 25 25 14 10 13 17 17 18 16 13 20 22 20 14 16 27 27 27 26 30 32 30 27 27 24 24 22 25 26 25 25 23 22 22 22 24 21 22 26 25 25 23 23 24 22 22 20 19 20 20 17 22 21 21 22 21 18 16 18 21 24 24 23 22
21 20 12 21 22 18 14 17 20 17 20 19 16 15 12 13 19 20 24 28 26 32 34 29 13 14 15 16 14 17 18 17 13 15 16 14 13 14 20 19 22 27 32 31 25 26 25 22 24 26 24 22 20 19 19 20 21 25 22 23 26 25 26 24 21 22 21 21 20 19 17 19 22 21 21 21 19 18 22 27 26 23 17 14 18 24
16 14 19 18 13 11 11 17 23 17 17 20 17 14 11 11 16 26 22 22 24 23 26 19 15 15 15 14 13 16 17 16 14 13 13 15 15 18 16 15 14 12 19 27 27 27 23 25 26 23 23 21 19 18 18 17 18 21 21 23 24 26 24 23 23 21 22 20 19 19 18 18 20 18 20 21 20 19 16 11 14 16 18 19 17 18
10 10 12 9 10 15 21 23 15 13 17 19 16 16 12 11 14 18 20 21 23 25 21 11 16 19 19 16 14 13 15 17 14 14 16 16 17 21 22 18 18 16 13 14 23 27 33 30 29 24 21 20 17 17 17 17 19 19 20 20 23 24 24 26 23 20 20 18 17 18 18 18 19 19 20 19 18 19 18 17 9 10 8 13 17 18
Wind_Speed
4 8 8 9 10 13 13 16 17 15 15 14 14 15 15 15 14 14 14 13 8 15 20 16 19 20 17 18 21 16 6 8 8 9 10 12 6 6 10 11 15 15 13 9 10 8 10 12 14 13 13 12 12 11 12 12 10 9 10 9 10 8 8 7 8 7 7 6 5 3 5 5 3 3 5 6 6 6 6 6 6 6 5 5 5 4
11 8 10 11 13 14 14 14 16 18 16 17 14 13 15 15 13 13 15 17 18 12 11 21 18 19 17 10 13 13 13 9 8 6 6 8 10 10 10 9 14 11 9 16 13 13 14 13 14 13 11 13 14 11 13 13 12 9 10 10 10 7 8 8 8 8 7 5 6 6 6 5 4 5 6 6 6 6 6 6 6 6 5 5 5 5
6 11 11 14 14 13 14 14 14 18 19 18 14 11 11 13 11 10 15 16 14 14 12 10 20 19 15 15 14 13 13 12 9 9 7 10 8 9 12 11 10 12 14 15 17 16 15 16 16 14 13 14 15 14 14 13 13 10 11 10 8 8 8 8 9 9 7 4 5 5 4 6 4 2 4 6 6 6 6 6 5 5 5 5 5 5
9 7 14 14 12 13 14 16 16 15 17 15 13 11 10 6 11 10 11 18 19 15 11 14 13 12 16 13 19 17 12 12 8 10 9 9 11 8 7 8 14 17 16 18 17 15 15 17 17 15 14 13 13 13 12 13 14 11 11 10 9 9 9 9 9 8 6 7 6 5 7 5 5 5 6 7 6 6 6 5 5 4 4 4 4 5
10 10 10 15 14 14 15 15 17 13 11 14 17 13 10 13 12 10 11 8 11 17 18 17 14 9 8 12 10 13 15 16 11 9 8 9 11 10 8 10 17 18 19 20 18 15 14 15 16 16 16 14 13 13 13 13 13 11 14 11 11 10 9 9 9 8 8 7 7 7 7 7 8 7 6 6 5 5 4 5 4 5 5 5 5 5
13 14 13 12 17 16 15 14 16 13 10 10 16 19 16 15 17 14 10 15 13 15 16 15 10 14 8 14 17 10 13 18 16 14 13 12 9 13 15 13 16 19 20 22 21 19 18 18 15 14 15 15 14 14 13 13 14 13 11 11 11 9 9 10 9 9 9 9 9 9 9 8 7 7 7 7 8 6 6 5 3 4 4 5 4 4
9 12 15 16 13 17 17 15 12 13 11 10 10 16 22 22 20 14 16 12 10 17 16 15 14 8 5 10 10 12 11 15 15 17 15 13 14 12 12 10 15 17 17 21 21 18 16 15 16 17 17 17 16 14 13 13 13 13 10 11 12 11 10 10 10 10 10 9 9 10 10 9 9 9 5 5 5 6 5 5 4 4 4 3 4 4
10 13 13 16 16 13 15 13 13 13 11 11 6 14 19 25 22 19 17 12 7 4 14 16 10 8 6 9 12 13 11 17 16 15 15 16 17 17 14 11 14 17 18 17 18 18 19 19 19 21 19 16 15 13 13 14 13 13 11 12 12 11 11 10 10 11 10 10 9 9 9 8 8 9 8 9 7 5 6 6 4 3 3 3 4 5
11 12 14 14 15 12 10 11 11 15 12 7 11 14 16 20 20 21 16 11 10 8 9 16 17 12 7 5 15 19 18 12 18 22 19 15 16 18 18 15 15 18 19 19 18 20 20 20 20 18 17 15 14 14 15 14 13 10 10 11 10 12 11 10 11 11 10 9 10 10 9 8 6 7 8 8 8 7 7 5 3 3 3 4 4 5
10 14 11 13 10 11 11 10 13 14 13 12 13 12 12 13 16 19 13 13 11 8 9 11 20 13 12 8 7 17 22 20 18 23 23 15 17 17 16 15 15 17 18 19 22 22 19 18 18 17 16 14 14 14 14 13 10 10 10 12 12 12 11 10 11 11 10 10 10 9 9 10 9 7 7 8 8 8 7 6 5 4 4 5 5 4
15 16 17 10 11 10 9 12 11 13 14 7 12 15 11 12 14 16 13 11 6 8 11 14 17 18 12 11 12 9 15 19 10 11 15 12 17 18 17 15 16 17 18 16 16 18 18 17 16 16 17 16 13 13 14 12 12 11 12 13 12 12 11 11 12 11 11 10 10 9 9 10 10 10 10 9 9 8 8 7 6 5 5 5 5 5
15 16 13 9 11 6 10 13 13 12 12 13 8 11 9 11 12 14 12 9 7 7 8 18 18 17 16 9 14 18 10 12 16 14 17 16 16 18 17 15 18 19 19 19 17 16 15 14 13 14 15 15 15 14 14 13 12 12 12 13 13 13 13 11 12 12 11 10 10 8 9 10 11 12 10 11 11 11 10 8 7 6 6 5 5 3
12 12 12 17 13 13 8 12 10 12 12 13 11 10 11 6 7 9 9 11 8 9 9 9 20 18 16 6 11 19 22 14 11 13 19 21 17 17 19 17 17 18 18 19 17 17 17 18 17 17 16 15 16 16 16 15 13 12 12 14 15 14 13 13 13 13 11 10 9 9 9 10 10 11 11 10 10 10 10 8 8 8 7 6 6 5
7 11 13 12 12 11 12 9 8 9 11 12 12 10 10 9 8 7 10 5 5 12 14 13 7 13 6 11 10 15 22 20 15 12 11 11 13 15 18 17 18 18 19 18 18 18 19 18 17 19 19 18 17 17 16 15 14 12 12 14 15 14 14 13 13 12 12 10 10 9 9 10 10 10 10 9 10 9 8 7 8 8 8 7 6 6
5 7 9 10 7 7 9 6 6 5 6 11 9 12 8 7 6 7 7 13 11 7 10 14 9 3 11 3 10 9 8 8 9 10 8 9 12 14 18 20 23 22 19 18 18 19 20 20 20 18 18 17 17 17 15 14 13 13 13 15 15 15 14 14 14 12 12 10 10 9 10 10 9 10 9 8 8 8 9 8 8 7 8 8 7 6
10 8 8 8 12 6 9 7 7 9 7 7 9 9 12 11 4 4 4 7 11 11 8 9 5 3 7 5 10 7 12 11 7 10 10 15 8 13 16 20 20 19 19 19 19 20 21 21 19 17 17 16 16 17 14 15 14 14 14 15 15 16 15 14 13 12 11 10 9 10 12 11 10 9 8 7 7 7 9 9 9 9 9 7 7 7
3 7 8 13 14 14 8 6 9 7 5 2 10 13 10 7 10 6 6 3 6 10 10 2 4 10 3 2 5 9 6 9 13 10 12 14 13 15 15 17 16 17 18 17 18 20 22 20 20 19 18 16 15 15 16 17 17 17 15 15 15 14 13 13 13 12 11 10 9 11 12 12 11 11 10 10 10 10 9 8 8 9 8 8 8 7
4 6 12 10 13 10 12 11 10 8 8 6 4 8 8 10 11 8 4 4 3 9 8 7 7 5 11 7 4 6 6 6 6 9 12 16 16 15 18 18 17 17 18 19 20 23 23 21 21 18 17 18 19 19 17 17 15 13 13 15 15 14 15 14 14 13 12 11 11 11 13 12 12 10 10 10 10 9 9 7 8 8 8 9 9 9
3 4 8 11 14 13 11 10 13 14 10 7 11 5 9 8 14 8 5 6 5 4 5 13 11 8 9 5 4 8 8 9 11 7 10 12 16 19 19 20 19 20 18 17 18 19 19 18 18 18 18 18 17 16 14 14 13 12 11 12 14 15 15 14 12 11 10 10 9 9 12 12 11 10 10 10 10 9 8 8 9 9 9 9 9 9
1 1 6 6 10 7 4 7 7 9 6 14 12 14 15 9 6 9 5 2 1 2 6 10 19 7 5 7 7 8 10 12 12 8 12 15 14 15 17 18 18 17 16 17 18 19 20 20 19 19 18 17 16 14 12 13 12 14 13 13 13 12 12 12 13 12 11 11 10 10 10 10 10 10 11 11 10 9 8 9 10 10 10 9 8 9
2 1 4 9 8 1 4 2 10 8 6 7 8 8 6 6 0 2 2 6 3 2 4 2 11 5 4 6 9 8 9 17 10 12 13 11 14 16 16 18 17 16 16 17 18 19 20 18 17 17 16 16 14 13 12 13 15 15 13 13 13 14 15 14 12 12 11 11 11 12 13 11 10 10 10 11 9 9 9 9 9 9 8 8 9 9
2 4 6 5 7 1 6 6 10 11 9 8 5 5 5 6 6 10 6 6 9 6 3 4 4 2 6 2 5 10 7 9 9 9 8 7 15 19 17 17 16 14 16 18 18 18 18 18 17 15 13 12 13 13 14 12 12 12 13 12 13 12 13 14 13 12 12 11 11 13 12 11 9 10 10 11 9 10 9 9 9 8 8 9 9 9
8 3 2 5 5 6 10 11 9 9 9 11 7 7 10 7 2 2 2 7 8 6 3 4 1 7 7 8 6 7 9 11 10 9 8 8 12 13 16 18 17 18 18 18 19 18 18 18 18 18 18 17 17 16 15 14 14 14 14 13 13 13 13 13 12 11 11 11 12 13 12 11 10 10 11 12 9 10 10 9 9 8 9 8 8 8
6 1 2 5 7 9 10 7 6 8 6 10 13 13 11 8 8 8 5 8 7 3 4 1 3 2 3 6 12 14 10 11 11 10 11 9 10 14 15 16 14 13 16 18 18 17 17 16 16 15 15 15 14 14 15 15 14 13 12 13 13 14 14 13 13 12 12 12 12 13 12 12 11 12 12 12 10 11 10 9 9 8 9 8 8 9
0 1 1 3 4 3 6 6 4 3 9 7 5 8 13 16 11 11 8 2 3 4 5 1 5 4 8 5 5 12 9 8 6 7 12 9 7 11 15 14 13 15 16 18 18 18 17 17 19 19 19 18 17 15 14 14 14 13 13 13 14 13 14 13 12 13 13 13 14 13 13 12 12 12 12 11 9 10 10 10 9 7 8 8 8 9
3 4 3 1 1 2 1 3 3 3 7 4 7 13 14 15 14 5 5 2 3 5 5 3 6 7 4 6 4 8 7 8 6 5 4 4 8 10 10 11 12 17 19 20 19 19 21 20 17 15 14 13 13 14 14 13 13 13 13 14 13 13 13 14 12 13 13 13 14 13 14 12 12 13 13 11 10 11 10 10 9 8 7 8 9 8
3 4 3 4 3 3 5 7 6 8 6 6 10 13 12 11 11 9 3 4 6 2 5 3 6 5 3 1 4 3 9 10 8 9 8 6 4 7 11 13 14 15 19 22 22 20 18 16 18 18 17 15 14 13 13 13 14 13 13 14 13 12 12 13 13 14 13 13 14 13 13 13 13 12 12 11 10 10 10 10 9 8 9 8 9 8
3 2 6 6 6 7 8 9 10 7 10 13 11 10 14 10 9 8 6 5 7 5 8 2 6 2 6 3 6 6 4 5 10 8 10 9 6 9 7 14 17 18 18 17 17 19 19 19 18 17 16 16 15 14 13 12 12 13 13 14 13 13 13 12 14 14 14 13 13 13 13 13 12 12 11 10 10 11 10 9 8 8 9 9 9 9
2 2 5 5 3 6 8 9 10 11 10 9 12 11 15 14 7 6 7 8 4 4 6 6 2 1 3 5 4 7 5 2 3 13 10 11 10 11 12 11 15 19 19 21 21 21 20 19 18 18 17 17 16 16 15 13 13 11 10 11 11 13 15 14 14 14 14 13 14 13 13 12 11 10 11 11 11 11 10 10 8 9 9 8 8 8
3 1 2 1 5 6 7 8 9 9 9 12 12 13 16 15 12 7 6 5 9 6 6 9 8 3 3 2 3 3 6 3 0 3 7 12 14 14 14 11 10 11 16 20 20 20 19 19 18 18 17 15 16 16 15 14 14 13 12 12 12 13 13 14 14 15 14 14 13 12 12 12 11 11 11 11 11 11 10 10 8 10 10 9 9 8
1 1 5 5 4 5 6 8 10 9 10 10 14 15 16 14 13 13 8 5 6 5 4 5 5 3 4 4 2 4 7 9 7 5 7 9 10 14 15 13 10 9 8 11 14 16 15 15 16 16 16 17 17 17 16 14 13 13 12 12 13 13 13 14 14 15 14 14 13 13 13 12 12 12 12 12 11 10 11 10 8 10 10 9 9 8
2 1 2 2 4 6 6 9 7 11 11 10 11 13 14 13 11 6 7 3 2 0 4 3 5 1 3 5 4 9 10 9 9 5 4 7 11 11 12 12 13 10 9 8 9 9 11 13 15 17 17 17 17 17 15 13 13 13 12 12 13 11 12 13 14 15 14 14 14 13 14 12 13 13 12 12 12 11 11 10 10 10 10 9 9 8
4 1 1 2 3 2 6 6 10 9 10 11 11 12 12 10 7 5 6 8 3 3 2 1 4 7 6 2 5 6 8 9 7 5 4 2 6 12 12 9 10 13 13 15 14 14 15 16 16 18 18 17 17 16 16 15 14 14 12 12 12 11 12 13 13 14 14 14 14 14 13 13 13 13 12 12 12 11 10 10 11 11 10 10 9 7
4 4 1 1 1 3 7 6 7 5 3 8 7 5 4 7 8 9 6 6 7 2 4 4 2 1 1 2 6 7 9 3 7 10 5 4 7 6 10 13 11 12 11 10 11 13 13 12 12 13 15 16 16 16 14 14 14 13 12 12 12 13 12 12 13 14 14 14 14 14 14 13 14 13 13 12 12 11 11 11 12 10 9 9 8 8
3 4 2 2 2 3 5 6 6 3 8 5 9 13 12 12 14 14 11 7 5 4 3 2 1 4 1 3 2 8 9 11 10 10 12 5 5 7 7 11 14 13 13 11 13 13 12 12 13 13 12 13 14 13 14 13 13 12 11 13 13 13 11 12 13 13 13 14 14 14 14 14 13 13 13 13 13 12 12 11 10 10 9 9 9 8
3 6 1 2 2 1 2 3 1 5 6 14 15 11 8 5 7 9 13 10 6 7 4 3 2 2 6 2 1 1 1 2 2 2 5 6 7 8 7 7 9 11 12 12 15 14 14 14 16 16 14 12 14 14 14 14 13 13 13 13 13 13 12 12 13 13 14 14 14 14 14 14 13 13 13 13 13 13 12 11 12 11 9 8 7 6
4 3 5 2 2 0 1 2 5 9 12 8 3 3 5 3 7 6 7 12 6 3 3 2 2 2 4 6 2 3 4 3 5 3 2 1 2 6 8 7 8 9 10 10 14 14 15 14 16 15 14 14 15 15 14 14 14 13 13 15 14 14 12 12 13 13 14 14 15 15 15 14 14 13 13 13 13 13 13 11 11 10 9 9 8 8
3 5 1 3 1 1 1 3 2 2 2 8 3 6 5 4 5 7 5 7 3 4 3 4 5 5 5 9 4 1 3 4 5 5 4 5 4 3 4 7 7 7 11 11 8 8 10 13 14 16 17 16 15 15 14 14 14 13 14 13 14 15 14 12 13 13 14 14 14 14 14 14 15 14 14 14 13 13 12 9 10 10 10 11 10 9
2 9 8 5 3 1 1 1 1 2 5 7 11 10 11 9 10 14 2 2 5 11 12 5 9 7 7 6 4 0 2 4 7 6 7 7 6 7 7 6 8 9 11 12 13 11 13 15 17 17 17 18 17 15 15 16 16 14 14 14 13 14 15 14 12 12 13 13 12 12 12 12 13 13 12 10 11 10 12 11 11 10 9 10 9 8
1 3 4 2 1 3 3 2 2 3 4 9 11 12 12 12 12 3 0 3 9 16 13 10 7 4 5 5 5 5 7 7 7 7 6 5 6 4 8 8 8 7 7 8 9 14 16 16 17 17 18 18 17 16 17 17 15 15 13 14 13 13 15 16 14 11 11 11 11 12 11 11 10 11 13 14 11 9 11 9 10 10 10 9 9 8
2 2 2 4 2 3 4 2 2 3 4 6 9 10 13 10 3 2 3 3 9 15 13 12 6 4 4 3 2 6 7 8 7 7 3 3 1 6 7 9 11 11 11 10 13 14 15 17 20 19 18 16 16 16 16 16 16 15 15 14 16 16 14 13 14 14 12 11 11 11 12 9 12 14 10 10 11 7 8 9 11 10 11 10 8 9
2 0 1 1 1 3 2 2 4 5 3 2 10 11 8 7 2 1 2 3 7 13 13 12 9 7 6 4 1 4 7 7 4 5 3 1 4 6 6 5 6 5 5 9 16 16 15 14 15 17 17 16 18 17 16 16 17 16 14 14 15 14 12 13 14 14 14 14 13 13 11 11 11 11 10 10 9 8 9 8 10 11 11 8 9 10
4 2 2 1 1 0 1 2 3 3 4 2 7 6 3 2 3 2 6 7 7 9 11 13 8 10 6 8 7 6 1 5 3 2 1 3 6 5 7 7 8 9 10 13 13 15 18 15 16 18 17 16 18 17 16 18 17 16 16 15 15 13 13 12 12 13 14 13 12 11 11 13 16 11 8 9 10 11 11 9 10 10 10 10 10 10
1 1 1 1 1 1 0 1 1 3 1 2 2 0 5 0 1 2 4 9 10 8 10 12 11 6 6 6 7 7 3 2 4 5 4 3 4 4 4 6 5 4 8 13 15 16 18 16 15 15 15 15 15 16 16 18 17 15 15 15 13 12 12 12 12 12 12 11 11 11 12 13 13 11 9 11 11 10 11 10 10 9 9 9 10 9
9 3 2 3 1 2 2 4 7 2 6 3 2 1 4 6 2 2 2 5 8 9 3 9 11 8 6 6 6 9 6 6 6 7 6 9 8 11 16 15 8 1 10 11 12 15 15 17 16 15 14 14 16 15 15 16 17 16 16 13 12 12 12 12 13 13 12 12 11 12 12 12 11 12 11 10 12 12 11 10 10 10 8 9 9 9
5 6 6 5 5 7 2 7 7 6 6 4 3 1 2 7 3 3 4 5 6 9 10 11 11 7 7 5 6 6 6 4 5 6 7 6 7 5 9 12 16 20 18 2 9 9 10 13 14 15 15 12 13 13 14 14 15 17 14 12 12 12 11 12 14 13 12 12 12 13 13 12 11 11 11 11 10 11 11 13 12 11 10 10 10 10
7 6 7 1 5 6 5 12 13 6 6 5 5 7 4 3 4 8 8 9 9 11 12 15 11 4 3 5 5 5 5 4 3 3 3 2 5 5 9 12 12 11 13 15 13 6 5 10 11 12 13 14 11 11 11 13 12 13 12 12 11 10 11 10 12 12 12 13 12 11 12 13 11 10 10 10 9 9 9 9 9 10 11 10 10 10
6 5 8 1 1 4 5 4 6 5 2 7 4 1 1 2 1 3 1 8 10 9 9 14 10 4 4 5 4 6 6 6 6 5 5 7 8 5 4 9 10 11 8 5 9 15 13 3 8 11 12 12 11 11 11 11 11 11 11 11 11 10 11 11 12 13 12 13 11 10 10 11 14 14 11 11 12 10 9 8 9 11 12 12 12 11
6 4 3 6 3 5 4 3 6 8 4 9 2 3 3 4 4 1 7 7 13 11 14 19 8 5 3 3 4 7 9 9 7 4 5 7 5 6 8 7 6 8 9 3 4 10 9 12 7 4 10 8 8 10 9 10 10 12 12 11 11 12 11 11 13 13 13 11 10 10 10 10 11 11 11 10 9 9 11 14 13 12 9 7 9 12
0 4 4 3 4 3 1 3 2 3 4 9 8 5 6 6 8 13 10 7 8 9 11 14 6 8 9 8 4 5 8 7 6 5 6 4 4 5 5 8 7 8 8 6 6 3 10 9 9 9 6 2 5 7 8 10 10 10 11 11 11 12 12 12 11 11 11 10 10 10 9 9 9 8 9 10 9 9 6 2 4 6 8 9 10 10
3 2 0 1 1 5 2 1 4 3 4 5 7 6 4 1 3 6 10 12 13 14 15 5 8 9 10 10 9 9 10 10 7 4 3 4 5 4 5 7 8 7 8 6 3 6 2 8 10 10 5 8 3 6 8 10 11 11 11 11 11 12 14 13 10 9 8 9 8 10 10 9 8 8 8 8 9 8 8 6 5 5 6 9 10 13
Wind_Direction
180 211 214 211 216 221 219 221 233 240 245 254 249 240 231 224 228 220 217 216 214 211 228 220 228 224 222 222 228 220 217 195 204 207 189 185 206 185 168 154 170 167 165 134 114 108 140 149 152 148 146 144 144 149 154 158 162 160 165 159 175 170 161 149 149 149 152 145 133 113 149 152 158 122 124 121 124 120 126 128 129 133 142 142 133 136
199 221 222 222 226 228 232 224 227 243 247 249 259 253 238 230 228 216 213 204 215 225 215 220 226 226 225 211 216 218 236 230 210 214 185 195 178 177 177 166 167 159 100 120 125 137 150 155 151 147 146 149 153 159 159 164 169 162 169 170 173 163 165 164 163 162 164 165 163 149 162 143 142 132 131 124 120 121 124 134 136 141 147 145 138 141
241 217 220 224 226 231 239 247 232 230 238 248 250 257 268 240 235 224 214 202 215 227 238 212 222 235 232 229 227 222 223 240 227 185 156 156 186 187 181 176 143 126 140 140 149 153 156 154 152 152 154 162 163 163 165 164 164 164 174 179 166 167 168 170 168 166 166 152 142 136 144 139 118 99 123 118 118 114 123 133 141 138 138 146 153 153
247 238 225 225 225 228 233 239 246 233 232 238 246 250 247 275 222 226 224 198 205 217 228 232 228 233 234 222 221 217 227 234 213 184 167 148 160 173 177 152 142 145 145 150 160 162 160 159 158 157 161 159 161 164 165 164 168 172 177 177 162 171 170 172 178 171 155 150 137 110 117 104 107 127 110 100 103 101 103 108 113 114 138 133 133 136
229 244 231 220 228 227 232 230 235 237 231 230 243 251 253 249 254 235 229 230 220 229 218 226 237 246 203 202 216 217 219 223 204 190 193 179 168 179 182 137 148 153 154 159 165 163 164 158 160 164 166 159 162 170 168 167 172 180 182 169 167 167 169 177 176 163 147 137 116 110 96 94 94 82 96 108 108 115 109 98 88 112 115 118 113 116
252 240 246 228 215 228 233 234 230 233 241 236 233 241 250 258 256 257 255 207 208 233 227 195 219 232 205 214 212 203 220 219 203 192 192 197 201 182 188 166 161 158 161 162 166 168 172 167 157 161 166 166 167 171 172 170 175 179 175 163 168 159 169 175 173 159 155 158 145 141 140 140 138 138 144 147 147 138 135 139 127 100 116 121 122 104
248 242 241 246 225 216 227 234 233 224 237 234 228 229 244 250 260 267 258 223 203 206 219 214 218 224 217 211 217 226 206 212 213 206 195 194 199 208 204 166 162 160 169 166 166 167 168 165 161 169 173 174 173 172 165 169 178 179 166 169 164 164 170 172 173 165 161 156 158 159 161 156 155 150 148 130 132 132 129 127 125 136 124 133 128 116
244 246 234 238 245 230 216 226 228 229 225 238 230 227 235 240 249 260 263 263 252 218 211 224 210 225 242 221 217 225 215 214 216 219 213 203 200 202 201 185 164 165 164 165 164 169 171 170 169 174 179 177 173 161 163 172 180 177 164 164 164 163 168 173 172 173 170 160 161 160 157 156 156 160 152 146 145 136 135 136 149 143 154 146 123 121
263 243 236 234 237 241 232 215 219 223 235 230 226 233 229 235 244 252 257 261 265 227 223 200 211 233 218 234 205 217 232 216 216 217 217 205 204 200 198 191 163 169 165 164 167 174 175 175 178 171 172 172 159 163 169 176 180 167 159 162 159 164 168 171 171 171 171 164 163 161 156 150 155 148 142 144 147 145 141 137 152 151 161 128 104 124
257 264 243 245 238 234 242 240 215 216 229 232 247 245 236 240 244 250 250 252 250 263 231 205 202 226 229 210 219 203 217 223 211 211 214 199 196 194 195 191 163 170 170 173 173 174 174 174 174 171 161 157 165 167 167 173 168 160 162 166 163 168 171 167 168 167 167 164 161 162 160 152 150 143 134 142 147 145 147 151 164 165 141 129 121 115
277 288 298 270 238 237 237 244 241 215 226 237 223 247 245 232 239 248 244 237 264 244 247 223 205 208 229 214 207 204 209 214 199 205 205 188 194 190 191 175 164 169 169 174 172 170 170 171 162 155 163 165 160 165 170 172 169 166 169 169 167 170 170 167 166 165 168 166 168 165 161 156 148 144 143 147 151 151 151 161 167 153 143 124 127 120
261 270 275 273 279 256 226 242 243 240 217 220 218 226 238 244 233 235 238 226 223 248 240 223 218 198 221 208 209 218 221 208 198 183 198 200 187 191 190 174 167 164 168 169 167 164 154 151 156 160 162 166 166 163 171 178 171 169 171 169 167 171 174 168 166 167 167 167 170 168 161 156 154 152 154 156 158 159 160 165 160 150 133 125 129 120
265 264 277 275 271 275 243 238 237 232 219 214 219 223 220 219 200 218 238 227 212 225 240 249 214 227 228 209 197 205 216 216 200 181 187 196 193 188 183 165 166 164 166 166 165 158 158 159 162 168 168 166 171 175 175 174 170 168 167 169 170 174 172 171 169 172 169 168 171 170 161 156 157 156 155 157 157 163 166 163 154 149 144 144 139 152
261 257 254 266 262 249 256 231 217 234 216 208 214 213 216 214 207 209 225 252 232 235 233 244 227 243 232 235 197 200 202 198 173 170 164 177 196 187 182 163 162 167 168 167 162 160 160 164 169 171 170 172 176 179 176 172 169 168 167 171 174 173 170 170 173 174 172 170 171 168 157 156 155 156 156 159 164 167 165 158 154 152 151 154 165 157
273 295 259 252 264 249 254 235 236 250 211 210 211 221 222 229 197 207 204 216 218 230 225 229 252 203 215 259 186 185 189 177 167 162 178 198 180 188 182 173 168 169 168 163 161 161 164 168 171 172 172 174 177 179 175 172 172 166 167 176 175 169 171 172 175 175 174 172 172 158 155 153 156 156 159 165 166 162 161 156 155 155 155 158 168 145
246 256 269 244 247 240 242 250 261 260 286 242 211 226 229 221 252 242 188 203 219 219 233 221 219 162 211 225 189 170 157 168 181 182 181 207 194 175 180 180 171 168 165 167 163 160 166 170 172 171 173 175 175 177 176 174 171 173 176 178 174 173 172 172 172 178 175 174 170 154 155 157 158 158 158 158 159 159 159 158 158 160 159 159 149 145
243 247 249 260 247 246 254 250 241 232 232 256 212 221 226 233 245 266 279 239 175 222 237 257 234 258 315 262 175 154 152 180 176 206 205 207 216 167 180 179 172 172 169 166 162 162 170 171 172 172 173 171 174 177 179 177 177 178 171 173 173 173 174 174 176 176 175 169 165 158 156 159 161 162 162 163 162 161 161 158 157 156 155 141 140 137
167 281 297 308 282 224 234 252 270 256 240 270 283 230 226 234 251 241 193 229 216 203 214 214 235 233 220 254 250 179 189 212 213 210 197 217 218 168 179 178 171 173 175 169 165 166 169 171 170 169 171 171 177 181 179 177 176 173 168 171 173 173 177 179 178 177 174 168 165 159 160 163 164 162 160 160 161 162 160 155 150 144 140 144 144 137
77 295 278 271 283 255 208 234 257 269 273 253 247 280 227 184 223 233 253 221 215 212 180 223 233 240 199 225 213 199 196 227 225 211 222 220 194 186 180 176 172 169 169 162 159 162 166 168 169 168 170 175 177 177 177 170 166 168 168 167 174 178 180 179 178 176 172 166 166 162 163 163 162 160 160 161 160 160 155 151 150 146 143 140 139 134
101 90 291 285 283 7 316 154 235 260 276 251 256 269 274 276 221 210 207 43 15 189 190 206 212 243 204 198 182 215 203 217 224 223 229 230 169 172 170 167 167 164 160 160 161 163 168 169 167 165 165 167 169 170 168 166 166 172 173 171 175 171 172 176 179 174 169 165 163 162 161 163 161 163 162 162 160 160 151 152 148 144 144 145 138 136
66 71 274 300 332 140 260 215 223 217 230 248 236 251 254 249 109 245 185 202 172 223 176 180 198 230 260 204 186 215 206 219 195 204 213 196 167 163 164 163 164 163 161 160 161 163 164 164 162 163 165 166 164 164 162 168 173 174 173 176 175 175 176 179 176 170 166 163 164 161 165 165 163 164 158 156 156 151 147 150 147 147 146 136 139 137
137 183 230 281 296 267 244 249 223 215 228 260 258 246 254 235 199 190 222 226 238 229 208 208 239 256 250 252 196 231 217 209 185 193 176 176 171 160 161 164 160 163 161 157 159 159 160 158 158 156 155 156 160 165 169 171 169 172 178 177 176 176 179 176 176 172 164 164 165 163 164 163 163 159 155 153 148 147 148 146 144 145 139 138 141 137
178 185 206 257 234 261 278 285 284 242 250 261 256 254 252 251 240 141 182 257 253 271 265 161 169 273 238 221 217 230 213 209 191 171 162 158 158 158 162 165 164 161 160 156 155 157 158 156 156 158 160 166 171 171 170 171 177 179 177 174 179 180 182 177 173 168 164 162 163 164 163 162 162 157 154 151 148 148 148 141 140 143 139 140 140 137
161 62 301 269 265 256 264 274 281 259 259 291 274 265 264 246 204 235 201 193 223 278 265 8 216 255 284 228 218 227 209 190 186 163 159 158 152 164 166 168 161 151 157 150 152 152 152 150 149 151 158 164 171 172 175 179 180 177 176 177 177 183 180 175 170 167 164 162 161 160 160 163 161 156 154 154 153 147 146 141 140 141 142 144 138 141
164 326 18 312 331 354 352 340 303 234 240 224 233 249 249 254 235 213 226 97 276 255 220 79 209 252 261 261 219 182 180 164 143 161 152 156 155 162 169 170 162 151 148 145 146 145 145 149 158 166 169 172 172 174 176 179 181 177 178 178 180 180 177 173 167 165 166 162 159 159 160 163 161 157 157 155 153 145 143 141 141 144 145 142 138 142
117 180 148 284 7 101 171 262 248 236 230 260 259 258 257 238 242 250 226 146 191 283 273 243 265 252 260 315 339 147 127 121 100 85 77 141 171 161 167 158 148 148 144 145 143 147 154 162 164 161 164 167 170 172 175 177 180 179 176 182 179 174 171 170 164 164 164 161 159 160 162 162 160 160 157 154 150 147 144 143 147 147 148 148 142 140
152 180 155 178 160 203 255 262 288 315 302 248 259 270 277 252 236 243 119 125 204 324 293 272 221 265 306 305 343 99 138 118 94 88 85 75 85 142 149 142 144 142 143 147 150 154 156 156 160 165 165 168 168 171 175 177 179 178 175 176 178 172 168 166 162 162 162 162 161 160 163 162 162 160 158 155 150 149 147 147 152 149 153 153 143 142
134 176 213 206 220 254 285 300 302 306 290 287 276 279 280 256 231 214 215 224 188 169 259 266 258 319 288 306 347 359 354 99 116 103 95 75 77 106 123 141 139 137 138 141 144 150 157 162 164 164 165 165 170 171 172 175 180 180 175 173 173 167 165 166 162 161 161 162 161 161 162 161 159 157 157 151 147 149 148 148 151 150 152 149 144 147
142 294 215 197 293 303 286 299 288 277 277 295 299 282 274 275 262 207 202 223 232 216 220 269 300 256 242 39 41 28 31 103 148 128 125 110 85 88 105 125 137 142 144 148 155 161 162 165 166 167 167 170 168 170 170 172 178 178 175 169 170 166 168 164 160 159 161 162 162 162 160 157 156 155 152 149 146 148 149 153 153 149 153 148 141 149
102 235 141 360 326 305 310 309 299 296 300 306 306 305 281 273 275 260 251 253 254 237 170 208 236 271 329 49 47 1 20 28 171 105 104 108 107 95 102 115 127 142 152 157 162 164 164 165 165 167 166 166 169 167 169 173 176 178 173 170 171 169 166 161 161 158 160 163 162 158 158 154 154 155 152 151 152 152 152 159 155 151 154 149 146 151
93 321 63 40 21 322 319 313 304 308 315 307 306 308 301 275 259 259 255 238 241 229 154 157 58 14 271 295 58 34 21 356 29 40 95 109 109 114 117 115 116 139 149 158 161 163 165 163 161 164 165 168 168 168 171 174 172 172 169 170 172 171 166 163 161 160 163 164 161 157 155 155 156 155 155 154 155 156 158 163 156 155 153 149 151 156
90 244 99 63 31 328 334 325 340 350 335 313 299 301 303 289 252 238 248 205 169 139 38 59 80 354 284 287 4 32 14 10 344 338 16 108 116 119 131 139 137 134 142 154 158 161 162 165 163 166 169 168 168 168 168 168 168 169 171 169 171 167 163 163 163 160 164 161 159 157 157 157 156 159 158 157 160 162 164 160 158 158 152 149 156 161
152 101 55 73 45 283 313 353 358 346 351 322 280 264 269 280 272 285 281 279 251 110 57 104 186 227 167 173 55 23 20 346 327 330 337 37 121 129 140 148 152 156 161 168 169 168 171 175 175 171 169 166 167 169 169 162 163 172 166 166 167 159 168 167 164 160 160 161 159 159 157 157 160 162 162 163 162 164 162 159 161 158 150 156 162 153
135 125 109 109 104 278 328 10 359 14 305 254 256 270 278 292 306 288 264 243 257 199 181 172 183 62 30 102 132 169 125 228 262 289 254 161 140 162 146 159 159 167 170 167 167 173 176 173 171 168 166 168 168 163 158 158 161 165 158 159 161 162 169 166 166 162 160 160 160 160 160 160 161 165 167 165 165 167 163 161 165 161 150 150 155 157
184 115 139 147 97 309 329 357 8 303 249 256 307 312 310 311 308 298 278 258 261 262 224 233 318 0 287 188 164 166 190 201 215 236 266 233 149 144 156 158 170 169 176 171 169 172 170 167 167 165 162 161 158 153 149 154 156 158 155 158 162 162 165 169 163 161 159 161 161 160 161 162 164 165 167 168 170 169 167 163 161 157 150 155 162 162
157 113 155 55 98 11 19 25 305 244 287 302 293 290 304 309 309 315 296 281 248 235 200 189 208 155 284 262 281 241 166 221 194 200 207 182 143 140 142 151 172 178 174 175 176 175 170 164 166 165 164 152 148 153 156 157 158 158 158 155 159 160 162 165 163 161 162 164 163 163 164 162 165 167 169 172 170 169 169 165 165 159 151 148 148 150
159 117 105 85 71 132 170 188 235 295 305 304 331 37 31 329 318 328 295 279 248 218 167 194 208 208 248 288 314 336 343 13 318 332 293 72 166 156 155 173 154 158 169 182 176 177 174 162 159 155 148 152 153 153 158 157 157 154 155 160 161 158 158 164 164 165 167 168 168 166 165 165 168 170 172 173 169 169 171 163 162 153 146 146 152 155
148 106 80 98 310 108 261 291 293 316 302 284 261 317 297 264 264 270 260 278 306 319 266 188 234 222 229 258 276 321 359 343 308 297 282 272 203 197 197 171 169 157 163 180 172 147 145 151 147 147 149 150 152 155 154 156 155 156 156 161 158 156 158 165 168 167 166 170 171 170 170 171 169 170 173 175 172 168 170 155 160 158 157 156 157 158
72 109 128 118 176 121 153 205 283 292 257 263 294 298 302 317 338 305 297 275 330 353 347 305 235 225 216 218 238 317 282 262 264 265 275 264 251 207 195 186 160 165 169 170 165 155 149 149 148 149 148 149 152 159 154 153 152 156 161 156 161 160 161 166 169 168 168 166 169 171 171 169 168 167 161 160 174 168 166 159 162 157 154 149 147 150
80 116 97 78 152 205 159 196 229 222 258 287 296 302 320 338 323 13 127 257 332 335 321 342 329 274 246 206 176 200 212 230 246 264 258 263 225 198 141 142 141 148 154 156 158 155 152 145 140 147 153 156 155 153 152 150 153 157 161 159 158 166 170 167 163 164 164 164 164 171 171 172 149 146 171 178 167 161 164 153 149 152 145 148 147 147
187 307 94 212 198 263 206 249 250 282 268 264 286 320 324 318 320 73 196 251 316 314 321 332 315 1 41 348 196 208 219 200 209 227 233 257 304 93 144 150 162 159 153 149 153 146 149 154 153 156 157 153 150 151 153 153 151 159 162 163 164 171 171 165 159 160 167 163 163 166 168 146 155 167 172 169 164 146 147 153 149 145 146 150 145 139
291 96 294 98 188 240 240 202 233 235 248 329 331 323 329 355 3 237 233 269 301 310 330 338 336 345 341 355 337 230 233 224 224 188 228 225 167 141 135 145 146 153 148 147 150 150 152 155 152 149 150 153 154 154 155 156 156 158 163 165 173 171 163 165 163 163 166 166 168 168 159 148 148 155 166 147 137 142 149 150 147 148 153 151 146 146
196 126 228 190 254 62 44 279 331 319 262 259 327 318 6 101 241 225 280 309 327 322 343 331 336 332 354 341 332 309 247 128 162 229 191 159 163 156 156 160 169 163 151 148 156 157 151 154 157 156 154 156 156 157 157 155 157 161 165 170 169 162 163 163 162 163 166 165 163 157 148 147 154 163 147 150 151 146 149 151 150 153 151 149 151 152
82 88 246 272 165 170 224 278 220 217 206 11 50 57 281 219 190 281 316 325 331 330 339 325 316 325 347 7 334 334 326 90 30 7 338 311 253 190 185 186 179 148 159 162 158 160 154 153 155 151 151 154 158 159 158 157 158 162 167 167 161 159 158 159 162 164 167 164 152 142 148 153 153 149 154 154 153 148 149 153 152 154 153 154 154 155
323 29 326 297 238 143 206 222 255 314 91 87 69 96 312 303 316 306 4 317 304 303 304 287 294 319 354 347 17 25 21 21 38 27 28 1 24 40 29 13 354 235 164 163 164 159 156 152 154 149 152 158 161 160 159 161 158 159 165 166 161 162 161 163 163 169 168 159 145 145 147 152 153 154 157 158 156 154 154 151 150 150 157 152 158 161
271 334 352 332 351 327 355 25 344 12 31 60 95 156 264 289 264 73 17 310 287 306 311 297 293 317 359 3 30 33 47 34 35 14 14 30 32 39 58 50 30 8 338 282 150 160 151 147 148 149 152 158 160 159 157 161 158 159 165 159 164 166 163 163 164 161 153 149 149 150 150 150 151 151 154 156 159 160 162 160 162 161 165 167 169 169
319 11 344 129 280 31 311 1 358 19 35 326 238 234 188 234 22 21 343 297 315 323 315 308 297 323 28 31 48 47 41 31 39 356 341 39 80 73 79 73 69 54 33 355 354 347 122 139 141 144 150 156 162 157 155 155 158 157 156 160 159 161 161 150 150 146 143 146 148 148 149 147 149 149 151 154 154 157 160 163 163 164 167 172 171 171
314 360 328 23 313 120 234 34 324 306 203 257 253 229 330 314 258 164 84 323 322 313 317 313 307 6 47 38 36 60 40 53 55 10 3 11 18 1 56 94 81 74 70 48 25 9 352 356 141 146 150 154 158 154 154 154 156 158 157 156 153 150 150 147 148 147 150 148 146 147 148 148 150 152 158 162 161 160 161 167 168 170 176 178 174 169
233 337 298 275 270 258 148 155 318 275 274 278 342 6 334 307 318 7 62 330 310 333 342 318 328 347 22 73 54 44 48 49 53 34 20 3 36 66 52 25 44 97 103 57 81 81 52 354 327 154 142 150 148 150 153 152 156 163 159 161 149 143 143 146 146 146 148 145 142 146 149 151 160 162 160 161 166 171 171 170 175 180 186 186 177 178
64 255 242 347 351 347 136 262 286 4 298 290 329 15 347 347 5 350 355 332 328 338 309 276 330 4 15 8 27 63 66 61 54 42 9 354 43 53 76 92 73 40 54 71 338 36 99 89 72 1 344 130 137 144 149 152 161 160 161 162 150 140 138 141 142 143 146 145 144 143 145 152 159 158 159 161 163 162 167 198 182 182 174 174 181 178
209 271 152 240 192 248 265 183 248 220 246 256 279 329 326 27 39 10 358 341 332 329 297 309 25 9 8 358 6 30 36 54 42 40 18 341 25 48 61 77 85 72 63 65 28 325 69 101 90 97 65 321 288 163 155 158 167 159 160 157 157 144 141 142 138 138 139 139 143 148 148 153 159 163 165 165 163 165 165 159 148 151 171 172 170 171